Find Starlink 34599

NORAD ID: 64919 Int'l Des: 2025-157 Owner: SPXS Country: US Constellation: starlink operational
LEOCIRCULAR

現在のビュー

3D地球を読み込み中...

About Starlink 34599

Starlink 34599 (NORAD 64919) is a starlink constellation satellite (v2 mini) launched Jul 26, 2025 by SPXS of US. It operates in LEO, CIRCULAR orbit with a mass of 575.00 kg.

次回通過

Passes for default location (London). Set your location on the main map for personalized predictions.

高度履歴

Loading altitude history...

軌道要素

1 64919U 25157R 26262.22932285 .00020056 00000-0 60291-3 0 9994
2 64919 53.1567 163.9855 0001262 90.6841 269.4306 15.34411239 65794
Epoch: Sep 19, 2026 • Age: 38 hours

現在のステータス

高度 466.5 km
遠地点 / 近地点 N/A
速度 7.64 km/s
衛星直下点 45.26°N, 83.67°W
打ち上げ日 Jul 26, 2025
運用期間 1.1 years
タイプ internet

技術仕様

分類 Payload
質量 575.00 kg
乾燥質量 530.00 kg
長さ 0.30 m
スパン 29.00 m
形状 ? Box + pan
製造者 SPXS
バスタイプ Starlink V2MO
フェーズステータス In Orbit
所有者/国 SPXS/US

Most Searched